www.pogodaiklimat.ru

Погода и климат >> Архив погоды >> Антарктида >> Dumont Durville


ПОГОДА в Dumont Durville

  • Прогноз погоды в Dumont Durville
  • Монитор погоды в Dumont Durville
  • Климат города

АРХИВ ПОГОДЫ в Dumont Durville

Время (UTC), дата Ветер
(напр.,м/с)
 
Видим.   Явления Облачность Т
(С)
Тd
(С)
f
(%)
Тe
(С)
Тes
(С)
Комфортность P
(гПа)
Po
(гПа)
Тmin
(С)
Tmax
(С)
R
(мм)
R24
(мм)
S
(см)
12 18.09 ЮВ 14-24
{24}
н/о н/о -21.4 -27.1 60 -38 -38 опасность
обморожения
986.5 980.8 -25.9 -21.4
15 18.09 ЮВ 9-17
{21}
н/о н/о -20.4 -26.9 56 -34 -34 опасность
обморожения
986.9 981.2
18 18.09 ЮВ 3
{21}
н/о н/о -19.9 -26.6 55 -28 -28 985.9 980.2
21 18.09 В 4 15 км ясно -19.5 -26.7 53 -28 -28 984.8 979.1
00 19.09 СВ 3 20 км ясно -17.6 -26.5 46 -24 -22 983.5 977.9 -21.6 -16.9
03 19.09 ЮЗ 2 20 км ясно -16.5 -25.2 47 -21 -17 981.7 976.1
06 19.09 В 3 20 км ясно -15.7 -24.0 49 -23 -21 980.1 974.5
09 19.09 В 5 н/о н/о -19.1 -25.5 57 -29 -29 979.2 973.6
12 19.09 В 6 н/о н/о -20.4 -27.3 54 -31 -31 опасность
обморожения
976.7 971.0 -22.0 -15.2
15 19.09 В 6 н/о н/о -22.8 -28.4 60 -34 -34 опасность
обморожения
975.5 969.8
18 19.09 В 4 н/о н/о -22.5 -28.2 60 -32 -32 опасность
обморожения
971.8 966.1
21 19.09 В 7 20 км 1/0
[]
-20.4 -26.9 56 -32 -32 опасность
обморожения
970.0 964.4
00 20.09 ЮВ 11
{22}
20 км 3/0
[Ci fib]
-17.5 -23.6 59 -31 -31 опасность
обморожения
968.1 962.6 -24.0 -17.5
03 20.09 В 12-20
{24}
12 км 3/0
[Ci fib]
-16.7 -22.1 63 -30 -30 967.5 962.0
06 20.09 ЮВ 12-19
{25}
20 км ясно -17.1 -23.8 56 -31 -31 опасность
обморожения
967.8 962.3
09 20.09 ЮВ 14-23
{24}
10 км ясно -19.6 -24.0 68 -35 -35 опасность
обморожения
969.0 963.4
12 20.09 ЮВ 12-19
{24}
н/о н/о -22.0 -27.2 63 -37 -37 опасность
обморожения
970.5 964.8 -22.0 -16.0
15 20.09 ЮВ 14-22
{26}
н/о н/о -23.3 -28.4 63 -40 -40 опасность
обморожения
971.2 965.5
18 20.09 ЮВ 6
{26}
н/о н/о -21.4 -28.9 51 -32 -32 опасность
обморожения
971.4 965.8
21 20.09 В 8 25 км 4/0
[]
-21.1 -28.6 51 -34 -34 опасность
обморожения
971.7 966.1
00 21.09 В 6 25 км 6/0
[Ci fib]
-19.1 -27.2 49 -30 -29 972.2 966.6 -23.6 -19.0
03 21.09 В 3 н/о н/о -17.0 -25.9 46 -23 -23 973.5 967.9
06 21.09 В 5 25 км 8/0
[Ci fib]
-17.9 -25.6 51 -28 -27 973.5 967.9
09 21.09 В 5 25 км 4/0
[Ac trans Ci fib]
-19.2 -26.6 52 -29 -29 973.8 968.2
12 21.09 В 7 н/о н/о -20.6 -27.5 54 -32 -32 опасность
обморожения
975.2 969.6 -20.6 -16.0
15 21.09 В 10-16
{17}
н/о н/о -20.4 -26.2 60 -34 -34 опасность
обморожения
976.1 970.5
18 21.09 ЮВ 10
{19}
н/о н/о -19.5 -25.7 58 -33 -33 опасность
обморожения
976.6 971.0
21 21.09 В 10-15
{17}
20 км 3/0
[]
-18.8 -25.0 58 -32 -32 опасность
обморожения
978.0 972.4
00 22.09 ЮВ 11
{19}
20 км 3/0
[Ci fib]
-16.7 -23.6 55 -30 -30 979.2 973.6 -21.2 -16.5
03 22.09 В 10
{19}
20 км 6/0
[Ac trans Ci fib]
-15.8 -23.0 54 -28 -28 980.4 974.8
06 22.09 В 6
{19}
25 км 4/0
[Ac trans Ci fib]
-14.8 -22.9 50 -24 -24 981.9 976.3
09 22.09 ЮЗ 5 20 км ясно -18.4 -25.6 53 -28 -28 983.9 978.3
12 22.09 Ю 10 н/о н/о -21.3 -28.0 55 -35 -35 опасность
обморожения
985.5 979.8 -21.4 -14.5
15 22.09 Ю 4 н/о н/о -23.0 -28.6 60 -33 -33 опасность
обморожения
986.3 980.5
18 22.09 Ю 6 н/о н/о -22.6 -29.2 55 -34 -34 опасность
обморожения
986.9 981.1
21 22.09 Ю 2 20 км 4/0
[]
-23.6 -30.1 55 -29 -29 986.8 981.0
00 23.09 В 3 20 км 8/0
[Cs]
-20.4 -27.7 52 -27 -25 986.4 980.7 -23.8 -20.3
03 23.09 В 6 15 км 10/3 1200 м
[Sc As trans]
-20.6 -27.3 55 -31 -31 опасность
обморожения
984.3 978.6
06 23.09 В 11
{16}
15 км 10/4 1000 м
[Sc As trans]
-21.4 -25.9 67 -36 -36 опасность
обморожения
980.9 975.2
09 23.09 В 10
{22}
1500 м слабый снег {метель} ?/? -20.2 -22.6 81 -34 -34 опасность
обморожения
977.4 971.7
12 23.09 В 12-19
{22}
н/о н/о -16.3 -18.4 84 -30 -30 977.1 971.5 -21.6 -15.9
15 23.09 ЮВ 8
{18}
н/о н/о -16.0 -17.9 85 -27 -27 978.6 973.0
18 23.09 СЗ 2
{18}
н/о н/о -16.2 -18.1 85 -20 -20 981.4 975.8
21 23.09 ЮВ 7 15 км 4/4 1500 м
[]
-18.5 -21.0 81 -30 -30 981.8 976.2
00 24.09 ЮВ 9-17
{17}
12 км 3/1 1300 м
[Sc Ci fib]
-17.8 -20.4 80 -30 -30 982.2 976.6 -19.1 -15.8
03 24.09 ЮВ 11-17
{17}
12 км позёмок {метель} 1/0
[Ci fib]
-17.9 -20.8 78 -31 -31 опасность
обморожения
981.3 975.7
06 24.09 ЮВ 15-22
{22}
200 м сильная метель 1/1 1200 м
[Sc]
-18.8 -21.0 83 -34 -34 опасность
обморожения
982.4 976.8
09 24.09 ЮВ 15-24
{27}
500 м сильная метель 3/0
[Ac trans]
-20.4 -22.8 81 -37 -37 опасность
обморожения
986.3 980.6
12 24.09 ЮВ 14-23
{27}
н/о н/о -21.3 -23.7 81 -37 -37 опасность
обморожения
991.5 985.7 -21.3 -17.0
15 24.09 ЮВ 17-26
{29}
н/о н/о -19.2 -21.4 83 -36 -36 опасность
обморожения
994.0 988.3
18 24.09 ЮВ 17-28
{31}
н/о н/о -18.8 -21.0 83 -35 -35 опасность
обморожения
996.0 990.3
21 24.09 Ю 6
{25}
н/о н/о -17.7 -19.9 83 -28 -28 999.7 994.0
00 25.09 Ю 5
{25}
25 км 1/0
[Ci fib]
-15.2 -17.3 84 -24 -22 999.8 994.1 -21.2 -14.9
03 25.09 Ю 5 н/о н/о -12.3 -19.9 53 -20 -20 998.2 992.6
06 25.09 С 2 25 км 3/0
[Ci fib]
-11.0 -17.7 58 -16 -14 996.7 991.1
09 25.09 штиль 0 15 км 9/0
[As trans]
-13.1 -16.4 76 -13 -13 995.3 989.7

 

Местоположение метеостанции Dumont Durville (Антарктида): широта -66.66 долгота 140.01 высота над уровнем моря 43 м.

В архиве по умолчанию представлена погода в Dumont Durville за последнюю неделю. Архивные данные за месяц целиком и за предыдущие месяцы, начиная с января 2011 года, Вы можете получить, выбрав интересующий диапазон дат из раскрывающегося списка и нажав кнопку "Ввод!".


*Определитесь, кто Вы:
робот инопланетянин человек

Внимание! Время в таблицах - всемирное. Для получения местного времени необходимо прибавить поправку, которая в Dumont Durville равна 0 ч.

Смотрите также архив погоды в соседних городах и на ближайших метеорологических станциях:

Погода в D-47 (Антарктида) (98 км)
Погода в Sitry Point (Антарктида) (651 км)
Погода в Mid Point (Антарктида) (691 км)
Погода в Leningradskaya (Антарктида) (860 км)
Погода в Dome C II (Антарктида) (1110 км)
Погода в Macquarie Island (Австралия) (1688 км)

Пояснения к столбцам:

Ветер - указаны скорость ветра в м/с - средняя за 10 мин, порывы в срок и между сроками (в фигурных скобках) и направление, откуда дует ветер: С - северный, СВ - северо-восточный, В - восточный, ЮВ - юго-восточный, Ю - южный, ЮЗ - юго-западный, З - западный, СЗ - северо-западный.
Видимость - горизонтальная дальность видимости в метрах или километрах. При видимости от 1 до 10 км при отсутствии осадков обычно наблюдается дымка, при ухудшении видимости до 1 км и менее - туман. В сухую погоду видимость может ухудшаться дымом, пылью или мглою.
Явления - указаны атмосферные явления, наблюдавшиеся в срок или в последний час перед сроком; фигурными скобками обозначены явления, наблюдавшиеся между сроками (за 1-3 часа до срока); квадратными скобками обозначены град или гололедные отложения с указанием их диаметра в мм.
Облачность - указаны через наклонную черту общая и нижняя облачность в баллах и высота нижней границы облаков в метрах; квадратными скобками обозначены формы облаков: Ci - перистые, Cs - перисто-слоистые, Cc - перисто-кучевые, Ac - высококучевые, As - высокослоистые, Sc - слоисто-кучевые, Ns - слоисто-дождевые, Cu - кучевые, Cb - кучево-дождевые. Подробнее классификацию облаков см. в Атласе облаков (PDF).
T - Температура воздуха - температура, измеренная на высоте 2 м над землей.
Td - Температура точки росы - температура, при понижении до которой содержащийся в воздухе водяной пар достигнет насыщения.
f - Относительная влажность воздуха - влажноcть воздуха, измеренная на высоте 2 м над землей.
Te - Эффективная температура - температура, которую ощущает одетый по сезону человек в тени. Характеристика душности погоды. При расчете учитывается влияние влажности воздуха и скорости ветра на теплоощущения человека.
Tes - Эффективная температура на солнце - температура, которую ощущает человек, с поправкой на солнечный нагрев. Характеристика знойности погоды. Зависит от высоты солнца над горизонтом, облачности и скорости ветра. Ночью, в пасмурную погоду, а также при ветре 12 м/с и более поправка равна нулю.
P - Атмосферное давление - приведенное к уровню моря атмосферное давление.
Po - Атмосферное давление - измеренное на уровне метеостанции атмосферное давление.
Tmin - Минимальная температура - минимум температуры воздуха на высоте 2 м над землей.
Tmax - Максимальная температура - максимум температуры воздуха на высоте 2 м над землей.
R - Количество осадков - Количество выпавших осадков за период времени, мм. При наведении курсора мыши на число - период времени, за который выпало указанное количество осадков.
R24 - Количество осадков - Количество выпавших осадков за 24 часа, мм.
S - Снежный покров - Высота снежного покрова, см. При наведении курсора мыши на число - состояние снежного покрова и степень покрытия местности в баллах.